Terug naar catalogus

COSMOS 1687

ActiefMilitairHEO
NORAD 16103·PAYLOAD·🇷🇺 Russia

Gelanceerd Sep 30, 1985 vanaf Plesetsk Cosmodrome

Loading…

Volgende Passages (komende 24 uur)

TLE

VersSource: Space-Track

Epoch: Sep 9, 2026, 04:32 UTC

1 16103U 85088A   26252.18895904 -.00000586  00000-0  00000-0 0  9991
2 16103  72.0632   5.6040 5513934 335.0345   6.6790  2.00707377299945

Volg COSMOS 1687 in realtime met AllMySat

Download on the App Store